Location: Gravenhurst
(44.9196°N, 79.3742°W)
Time: 12:53:46
(UTC-04:00)

OTV 5 (USA 277) - Visible Passes

Search period start: 20 October 2019 00:00
Search period end: 30 October 2019 00:00
Orbit: 310 x 324 km, 54.5° (Epoch: 17 October)

Date Brightness Start Highest point End Pass type
(mag) Time Alt. Az. Time Alt. Az. Time Alt. Az.
20 Oct ? 05:37:48 24° ESE 05:37:48 24° ESE 05:39:04 10° ESE visible
21 Oct ? 05:52:34 17° SSE 05:52:34 17° SSE 05:53:24 10° SSE visible
28 Oct ? 19:09:17 10° S 19:10:58 15° SE 19:11:24 15° ESE visible
29 Oct ? 19:22:46 10° SSW 19:25:19 37° SE 19:25:53 33° ESE visible
